星链-32406 (STARLINK-32406)

导读 | 豆包AI

STARLINK-32406是美国SpaceX公司星链(Starlink)星座的成员卫星,于2024年10月15日发射升空。星链星座旨在为全球提供高可靠性、低延迟的高速互联网服务,该卫星采用氪离子推进与自主碰撞规避技术,运行于近地轨道,通过星间激光链路优化通信效率,是星链持续拓展全球覆盖、完善卫星互联网布局的重要组成部分。

基本信息
目录编号:
61545
目录名称:
STARLINK-32406
国际标识:
2024-184P
轨道中心:
EARTH
卫星名称:
星链-32406
卫星全名:
星链-32406 (STARLINK-32406)
卫星状态:
在轨 (已飞行563 天)
发射日期:
2024-10-15 UTC
国别 :
美国 (US)
星等 :
--
轨道信息
数据来源 国际轨道数据 AOE轨道数据
星历时间 2026-04-30T19:17:30+0800
15小时前
查看轨道信息
2026-05-01T05:00:00+0800
6小时前
查看轨道信息
半长轴 6853.374km 6853.345km
偏心率 0.0001133 0.0001008
轨道倾角 53.160° 53.158°
近地点辐角 81.364° 73.541°
升交点赤经 133.508° 131.631°
平近点角 278.749° 356.173°
近地点 474.46km 474.517km
远地点 476.014km 475.899km
周期 94.106分钟 94.105分钟
每日圈数 15.301927 15.302024
详细信息
固有亮度:
5
最大亮度:
2.5
卫星平台:
Starlink V1.0
覆盖范围:
全球
运营商:
太空探索技术公司
运营商所在国:
美国
制造商(研发单位):
太空探索技术公司
制造商所在国:
美国
使用方式:
暂无
卫星简介
Starlink 计划是 SpaceX 推出的全球卫星互联网项目,通过发射低轨道卫星,为全球尤其是偏远地区提供高速、低延迟的互联网服务。自 2019 年起,Starlink 已部署数千颗卫星,旨在缩小全球数字鸿沟,推动互联网普及。该项目还为军事、航空等行业提供通信支持,带来广泛经济效益。
2D轨道图
3D轨道图
轨道高度分析图
轨道倾角分析图
轨道综合分析图
查看轨道综合分析图